Find Globalstar M042

NORAD ID: 25679 Int'l Des: 1999-019 Owner: GLOBT Country: US Constellation: globalstar operational
LEOCIRCULAR

Live Position

Loading 3D Globe...

About Globalstar M042

Description loading...

Upcoming Passes

Passes for default location (London). Set your location on the main map for personalized predictions.

Altitude History

Loading altitude history...

Two-Line Element Set

1 25679U 99019D 26103.79015160 -.00000040 00000-0 49430-3 0 9996
2 25679 52.0015 282.3328 0002842 182.2864 191.3089 12.22096408222011
Epoch: Apr 13, 2026 • Age: 13 hours

Current Status

Altitude 1586.4 km
Velocity 7.08 km/s
Sub-Earth Point -19.05°S, 157.19°E
Launch Date Apr 15, 1999
Age 26.9 years
Type communications

Technical Details

Classification Payload
Mass 450.00 kg
Dry Mass 380.00 kg
Total Mass 450.00 kg
Length 1.50 m
Diameter 0.60 m
Span 12.00 m
Shape Box + 2 Pan
Manufacturer LOR
Bus Type LS-400
Phase Status In Orbit
Owner/State GLOBT/US

Most Searched